• In Czech Republic
  • List of Countries
  • For 7 days
  • Water Temperature
  • Satellite Maps
  • Weather Map
  • Weather Widgets
  • user-avatar
    Login

    Hourly Weather Almansa

    Today, 20 October, Saturday

    Time Temperature Precipitation Wind Pressure Humidity
    00:00 +13°C° 0 mm 3 mps 703 mmHg 84%
    01:00 +13°C° 0 mm 3 mps 703 mmHg 85%
    02:00 +13°C° 0 mm 3 mps 703 mmHg 86%
    03:00 +13°C° 0 mm 4 mps 703 mmHg 87%
    04:00 +13°C° 0 mm 4 mps 703 mmHg 89%
    05:00 +13°C° 0 mm 4 mps 703 mmHg 90%
    06:00 +13°C° 0 mm 5 mps 703 mmHg 91%
    07:00 +14°C° 0.3 mm 5 mps 704 mmHg 89%
    08:00 +14°C° 0.3 mm 5 mps 704 mmHg 87%
    09:00 +15°C° 0.3 mm 6 mps 704 mmHg 85%
    10:00 +15°C° 0.4 mm 6 mps 704 mmHg 83%
    11:00 +16°C° 0.4 mm 7 mps 705 mmHg 81%
    12:00 +16°C° 0.4 mm 7 mps 705 mmHg 79%
    13:00 +17°C° 0.1 mm 8 mps 705 mmHg 78%
    14:00 +17°C° 0.1 mm 8 mps 704 mmHg 77%
    15:00 +18°C° 0.1 mm 9 mps 704 mmHg 76%
    16:00 +17°C° 0 mm 9 mps 704 mmHg 80%
    17:00 +17°C° 0 mm 8 mps 704 mmHg 84%
    18:00 +16°C° 0 mm 8 mps 704 mmHg 88%
    19:00 +16°C° 0 mm 8 mps 705 mmHg 89%
    20:00 +16°C° 0 mm 8 mps 705 mmHg 91%
    21:00 +16°C° 0 mm 8 mps 705 mmHg 92%
    22:00 +15°C° 0.1 mm 7 mps 705 mmHg 92%
    23:00 +15°C° 0.1 mm 7 mps 705 mmHg 92%

    Tomorrow, 21 October, Sunday

    Time Temperature Precipitation Wind Pressure Humidity
    00:00 +15°C° 0.1 mm 7 mps 705 mmHg 93%
    01:00 +15°C° 0.2 mm 7 mps 705 mmHg 92%
    02:00 +16°C° 0.2 mm 7 mps 705 mmHg 92%
    03:00 +16°C° 0.2 mm 7 mps 704 mmHg 91%
    04:00 +15°C° 0 mm 6 mps 704 mmHg 92%
    05:00 +15°C° 0 mm 6 mps 705 mmHg 93%
    06:00 +15°C° 0 mm 6 mps 705 mmHg 93%
    07:00 +16°C° 0 mm 6 mps 705 mmHg 89%
    08:00 +16°C° 0 mm 7 mps 705 mmHg 86%
    09:00 +17°C° 0 mm 7 mps 706 mmHg 82%
    10:00 +18°C° 0 mm 7 mps 706 mmHg 79%
    11:00 +19°C° 0 mm 6 mps 706 mmHg 76%
    12:00 +20°C° 0 mm 6 mps 706 mmHg 73%
    13:00 +20°C° 0 mm 5 mps 705 mmHg 73%
    14:00 +20°C° 0 mm 5 mps 705 mmHg 73%
    15:00 +20°C° 0 mm 4 mps 705 mmHg 73%
    16:00 +19°C° 0 mm 4 mps 705 mmHg 78%
    17:00 +18°C° 0 mm 3 mps 705 mmHg 82%
    18:00 +17°C° 0 mm 2 mps 704 mmHg 86%
    19:00 +18°C° 0 mm 1 mps 705 mmHg 88%
    20:00 +16°C° 0 mm 1 mps 705 mmHg 90%
    21:00 +16°C° 0 mm 1 mps 705 mmHg 92%
    22:00 +15°C° 0 mm 1 mps 705 mmHg 92%
    23:00 +15°C° 0 mm 1 mps 704 mmHg 92%

    Day after tomorrow, 22 October, Monday

    Time Temperature Precipitation Wind Pressure Humidity
    00:00 +15°C° 0 mm 1 mps 704 mmHg 91%
    01:00 +15°C° 0 mm 1 mps 704 mmHg 91%
    02:00 +14°C° 0 mm 1 mps 704 mmHg 90%
    03:00 +14°C° 0 mm 1 mps 704 mmHg 90%
    04:00 +14°C° 0 mm 1 mps 704 mmHg 89%
    05:00 +14°C° 0 mm 1 mps 704 mmHg 88%
    06:00 +14°C° 0 mm 1 mps 704 mmHg 88%
    07:00 +16°C° 0 mm 1 mps 704 mmHg 80%
    08:00 +18°C° 0 mm 1 mps 705 mmHg 72%
    09:00 +20°C° 0 mm 1 mps 706 mmHg 64%
    10:00 +21°C° 0 mm 1 mps 706 mmHg 57%
    11:00 +22°C° 0 mm 1 mps 706 mmHg 51%
    12:00 +24°C° 0 mm 1 mps 706 mmHg 44%
    13:00 +24°C° 0 mm 3 mps 706 mmHg 46%
    14:00 +22°C° 0 mm 4 mps 706 mmHg 48%
    15:00 +22°C° 0 mm 5 mps 705 mmHg 50%
    16:00 +21°C° 0 mm 5 mps 706 mmHg 59%
    17:00 +19°C° 0 mm 4 mps 706 mmHg 69%
    18:00 +17°C° 0 mm 4 mps 706 mmHg 78%
    19:00 +17°C° 0 mm 4 mps 706 mmHg 81%
    20:00 +15°C° 0 mm 4 mps 707 mmHg 85%
    21:00 +16°C° 0 mm 3 mps 707 mmHg 88%
    22:00 +16°C° 0 mm 3 mps 707 mmHg 88%
    23:00 +16°C° 0 mm 3 mps 707 mmHg 89%

    23 October, Tuesday

    Time Temperature Precipitation Wind Pressure Humidity
    00:00 +14°C° 0 mm 3 mps 707 mmHg 90%
    01:00 +15°C° 0 mm 2 mps 707 mmHg 90%
    02:00 +15°C° 0 mm 2 mps 707 mmHg 89%
    03:00 +15°C° 0 mm 2 mps 707 mmHg 89%
    04:00 +15°C° 0 mm 2 mps 707 mmHg 90%
    05:00 +14°C° 0 mm 2 mps 707 mmHg 92%
    06:00 +14°C° 0 mm 1 mps 707 mmHg 93%
    07:00 +15°C° 0 mm 1 mps 707 mmHg 87%
    08:00 +15°C° 0 mm 1 mps 708 mmHg 82%
    09:00 +16°C° 0 mm 1 mps 708 mmHg 76%
    10:00 +17°C° 0 mm 2 mps 708 mmHg 70%
    11:00 +18°C° 0 mm 2 mps 708 mmHg 63%
    12:00 +19°C° 0 mm 3 mps 708 mmHg 57%
    13:00 +19°C° 0 mm 3 mps 708 mmHg 57%
    14:00 +19°C° 0 mm 3 mps 708 mmHg 57%
    15:00 +20°C° 0 mm 3 mps 707 mmHg 56%
    16:00 +19°C° 0 mm 3 mps 708 mmHg 62%
    17:00 +18°C° 0 mm 3 mps 708 mmHg 67%
    18:00 +17°C° 0 mm 3 mps 708 mmHg 72%
    19:00 +16°C° 0 mm 2 mps 708 mmHg 76%
    20:00 +15°C° 0 mm 2 mps 708 mmHg 81%
    21:00 +15°C° 0 mm 1 mps 708 mmHg 85%
    22:00 +14°C° 0 mm 1 mps 708 mmHg 87%
    23:00 +14°C° 0 mm 1 mps 708 mmHg 89%

    24 October, Wednesday

    Time Temperature Precipitation Wind Pressure Humidity
    00:00 +12°C° 0 mm 0 mps 708 mmHg 91%
    01:00 +12°C° 0 mm 0 mps 707 mmHg 92%
    02:00 +12°C° 0 mm 0 mps 707 mmHg 93%
    03:00 +11°C° 0 mm 0 mps 707 mmHg 94%
    04:00 +11°C° 0 mm 0 mps 707 mmHg 93%
    05:00 +11°C° 0 mm 0 mps 707 mmHg 93%
    06:00 +11°C° 0 mm 1 mps 707 mmHg 93%
    07:00 +13°C° 0 mm 1 mps 707 mmHg 85%
    08:00 +14°C° 0 mm 1 mps 708 mmHg 77%
    09:00 +16°C° 0 mm 1 mps 708 mmHg 69%
    10:00 +18°C° 0 mm 1 mps 708 mmHg 60%
    11:00 +20°C° 0 mm 1 mps 708 mmHg 51%
    12:00 +21°C° 0 mm 1 mps 708 mmHg 41%
    13:00 +22°C° 0 mm 1 mps 707 mmHg 38%
    14:00 +22°C° 0 mm 1 mps 707 mmHg 35%
    15:00 +23°C° 0 mm 1 mps 707 mmHg 32%
    16:00 +21°C° 0 mm 1 mps 706 mmHg 36%
    17:00 +20°C° 0 mm 1 mps 706 mmHg 40%
    18:00 +19°C° 0 mm 1 mps 706 mmHg 44%
    19:00 +18°C° 0 mm 1 mps 706 mmHg 46%
    20:00 +16°C° 0 mm 1 mps 706 mmHg 48%
    21:00 +16°C° 0 mm 1 mps 707 mmHg 51%
    22:00 +15°C° 0 mm 1 mps 706 mmHg 52%
    23:00 +15°C° 0 mm 1 mps 706 mmHg 53%

    25 October, Thursday

    Time Temperature Precipitation Wind Pressure Humidity
    00:00 +14°C° 0 mm 1 mps 706 mmHg 55%
    01:00 +14°C° 0 mm 1 mps 706 mmHg 55%
    02:00 +14°C° 0 mm 1 mps 705 mmHg 56%
    03:00 +13°C° 0 mm 1 mps 705 mmHg 56%
    04:00 +13°C° 0 mm 1 mps 705 mmHg 56%
    05:00 +13°C° 0 mm 1 mps 705 mmHg 56%
    06:00 +13°C° 0 mm 1 mps 705 mmHg 56%
    07:00 +15°C° 0 mm 1 mps 706 mmHg 50%
    08:00 +18°C° 0 mm 1 mps 706 mmHg 44%
    09:00 +20°C° 0 mm 1 mps 707 mmHg 37%
    10:00 +21°C° 0 mm 1 mps 707 mmHg 34%
    11:00 +22°C° 0 mm 1 mps 706 mmHg 30%
    12:00 +23°C° 0 mm 1 mps 706 mmHg 26%
    13:00 +24°C° 0 mm 2 mps 706 mmHg 26%
    14:00 +24°C° 0 mm 2 mps 706 mmHg 25%
    15:00 +24°C° 0 mm 2 mps 705 mmHg 24%
    16:00 +23°C° 0 mm 2 mps 705 mmHg 29%
    17:00 +20°C° 0 mm 2 mps 705 mmHg 34%
    18:00 +18°C° 0 mm 2 mps 705 mmHg 39%
    19:00 +18°C° 0 mm 2 mps 705 mmHg 42%
    20:00 +17°C° 0 mm 2 mps 705 mmHg 46%
    21:00 +16°C° 0 mm 1 mps 705 mmHg 49%
    22:00 +16°C° 0 mm 1 mps 704 mmHg 51%
    23:00 +15°C° 0 mm 1 mps 704 mmHg 53%
    Show more